カタリナ彗星

C/2006 V1 ( Catalina )

English version
Home page
Updated on January 20, 2013

---------------------------------------------------------------------

・ プロフィール

発見日 2006年11月11日
発見光度 18.5等
発見者 Catalina Sky Survey

・ 写真集

・ 軌道要素

Epoch 2007 Dec. 6.0 TT = JDT 2454440.5
T 2007 Nov. 26.54632 TT                                 MPC
q   2.6747629            (2000.0)            P               Q
z  +0.0038338      Peri.  253.41415     -0.59755750     +0.77315524
 +/-0.0000013      Node   335.72190     -0.38148605     -0.50723793
e   0.9897455      Incl.   31.11928     -0.70526125     -0.38071072
From 634 observations 2006 Nov. 11-2008 Sept. 19, mean residual 0".5.

・ 星図

・ 光度変化

        m1 = 8.2 + 5 logΔ + 10.0 log r

---------------------------------------------------------------------

軌道要素はM.P.E.C. 2013-A29に掲載されたものです。
星図は StellaNavigator Ver.2.0 for Windows (アストロアーツ 編著 / アスキー出版局刊) で作成したものです。
光度グラフはComet for Windowsで作成したものです。

---------------------------------------------------------------------

Copyright(C) Seiichi Yoshida (comet@aerith.net). All rights reserved.